Regional Weather Roundup
Issued by NWS

Home | Current Version | Previous Version | Text Only | Print | Product List | Glossary On
Versions: 1 2 3 4 5 6 7 8 9 10 11 12 13 14 15 16 17 18 19 20 21 22 23 24 25 26 27 28 29 30 31 32 33 34 35 36 37 38 39 40 41 42 43 44 45 46 47 48 49 50
000
ASUS43 KDTX 240510
RWRMI
MICHIGAN HOURLY REGIONAL WEATHER ROUNDUP
NATIONAL WEATHER SERVICE DETROIT/PONTIAC MI
100 AM EDT SUN JUL 24 2016

NOTE: "FAIR" INDICATES FEW OR NO CLOUDS BELOW 12,000 FEET WITH NO
SIGNIFICANT WEATHER AND/OR OBSTRUCTION TO VISIBILITY.

MIZ047>049-052>055-059>063-066>070-074>076-081>083-240600-
SOUTHEAST LOWER MICHIGAN

CITY           SKY/WX    TMP DP  RH WIND       PRES   REMARKS
ADRIAN         CLOUDY    78  71  79 SE7       29.97F
ALMA           CLOUDY    75  65  70 SE3       29.95F
ANN ARBOR      CLOUDY    77  63  61 E6        29.98F
BAD AXE        PTCLDY    66  58  74 CALM      29.99S
CARO           CLOUDY    69  59  70 CALM      29.98S
DETROIT CITY   PTCLDY    77  67  71 E6        29.98F
DETROIT        CLOUDY    80  61  52 SE5       29.99S
FLINT          CLOUDY    76  59  55 SE6       29.98S
GROSSE ILE     PTCLDY    78  60  55 E5        29.97S
HOWELL         CLOUDY    78  60  54 SE7       29.98F

CITY           SKY/WX    TMP DP  RH WIND       PRES   REMARKS
JACKSON        CLOUDY    77  71  82 NE5       29.97F
LAMBERTVILLE   CLOUDY    78  69  74 SE3       29.97F
LANSING        CLOUDY    80  62  54 SE10      29.96F
LAPEER         FAIR      70  59  68 S3        30.00R
MASON          CLOUDY    77  65  67 E10       29.97F
MONROE         CLOUDY    77  69  76 SE6       29.97F
MT. CLEMENS    PTCLDY    73  65  76 E3        29.96F
PONTIAC        MOCLDY    76  60  57 E3        29.99S
PORT HOPE        N/A     70  60  70 S6        29.97S
PORT HURON     PTCLDY    63  61  94 CALM      29.99F
TRI CITIES     CLOUDY    72  67  84 E6        29.97S
MIDLAND        FAIR      71  65  80 E5        29.95S
TROY           CLOUDY    79  59  50 NE3       30.01S
SAGINAW HB     CLOUDY    72  63  73 SE3       29.96S
$$
MIZ043>046-050>051-056>058-064>065-071>073-077>080-240600-
SOUTHWEST LOWER MICHIGAN

CITY           SKY/WX    TMP DP  RH WIND       PRES   REMARKS
BATTLE CREEK   CLOUDY    78  67  68 SE5       29.96F
BENTON HARBOR  LGT RAIN  74  70  87 CALM      29.97R
BIG RAPIDS     CLOUDY    72  71  99 CALM      29.94F
COLDWATER      LGT RAIN  77  70  80 CALM      29.97R
FREMONT        LGT RAIN  75  75 100 CALM      29.94S
HOLLAND        LGT RAIN  73  69  87 SW7       29.98R
GRAND RAPIDS   CLOUDY    79  71  76 W12       29.96R
IONIA          FAIR      75  66  73 CALM      29.94S
KALAMAZOO      CLOUDY    76  72  87 W6        29.97R
LUDINGTON      CLOUDY    75  73  92 SW6       29.90F
MOUNT PLEASANT MOCLDY    71  66  84 CALM      29.94F
MUSKEGON       LGT RAIN  75  71  87 SW14      29.95R
SOUTH HAVEN    LGT RAIN  73  71  92 SW3       29.98R
$$
MIZ016>042-240600-
NORTHERN LOWER MICHIGAN

CITY           SKY/WX    TMP DP  RH WIND       PRES   REMARKS
ALPENA         PTCLDY    67  59  75 S5        29.97S
BEAVER ISLAND  PTCLDY    71  63  76 SE7       29.91F
BELLAIRE       CLOUDY    69  67  92 CALM      29.92F
CADILLAC       MOCLDY    72  65  78 E6        29.96S
CHARLEVOIX     PTCLDY    74  63  69 SE7       29.94F
FRANKFORT      CLOUDY    72  64  73 W5        29.90S
GAYLORD        MOCLDY    72  58  61 SE8       29.98F
GRAYLING       CLOUDY    71  58  64 E6        29.98F
HARBOR SPRINGS CLOUDY    73  62  68 NE5       29.93F
HOUGHTON LAKE  PTCLDY    71  60  68 SE6       29.98F
MANISTEE       CLOUDY    73  66  78 CALM      29.91S
OSCODA         CLOUDY    67  61  80 CALM      29.97S
PELLSTON       CLOUDY    69  64  84 SE3       29.94F
ROGERS CITY    PTCLDY    74  56  53 S8        29.97S
TRAVERSE CITY  CLOUDY    75  64  68 CALM      29.89F
$$
MIZ007>008-015-240600-
EASTERN UPPER MICHIGAN

CITY           SKY/WX    TMP DP  RH WIND       PRES   REMARKS
KINROSS        CLOUDY    72  60  66 S8        29.95F
MACKINAC ISLAN PTCLDY    75  58  55 S7        29.93F
NEWBERRY       CLOUDY    68  63  85 SE3       29.92F
S. S. MARIE    MOCLDY    71  64  78 SE6       29.94R
MUNISING         N/A     73  61  65 S3        29.87F
$$
MIZ004>006-011>014-085-240600-
CENTRAL UPPER MICHIGAN

CITY           SKY/WX    TMP DP  RH WIND       PRES   REMARKS
MANISTIQUE     CLOUDY    73  63  68 E6        29.90R
ESCANABA       CLOUDY    70  63  78 W13       29.91R
MENOMINEE      LGT RAIN  72  70  93 S6        29.89F
SAWYER-GWINN   CLOUDY    72  58  61 S15       29.91R
$$
MIZ001>003-009>011-084-240600-
WESTERN UPPER MICHIGAN

CITY           SKY/WX    TMP DP  RH WIND       PRES   REMARKS
IRON MOUNTAIN  LGT RAIN  69  65  86 SE5       29.88F
HOUGHTON       CLOUDY    65  59  81 E8        29.85F
COPPER HARBOR    N/A     71  61  70 SW8G20    29.83F
IRONWOOD       CLOUDY    72  68  88 S7        29.83R
$$

ABBREVIATIONS USED IN REMARKS
   TC - TEMPERATURE IN CELSIUS
  WCI - WIND CHILL INDEX
   HX - HEAT INDEX
  VSB - VISIBILITY





USA.gov is the U.S. government's official web portal to all federal, state and local government web resources and services.